JASON-3

Last updated on Mon Sep 07 2026 00:02:45 GMT+0000 (Coordinated Universal Time)

1 41240U 16002A 26249.63381280 -.00000034 00000+0 11017-3 0 9994 2 41240 66.0430 314.6031 0008502 267.0315 92.9731 12.87627101497735
UTC large
Height (km)
Speed (km/s)
/
Latitude / Longitude
Inclination (degrees)
Orbital Period (minutes)
Azimuth
Elevation
Range (km)
Doppler Factor

Next 0 passes for location: London (51.5072 / 0.1276)

No passes found over London.
JASON-3